[[{"header":{"parameterUnit":"m.s-1","parameterCategory":1,"la1":30.2991,"la2":30.254,"lo1":-89.0895,"lo2":-89.0444,"dy":0.0017,"dx":0.0017,"nx":28,"ny":28,"refTime":"2024-05-09T21:00:00:Z","depth":0,"parameterNumber":2,"parameterNumberName":"U-component_of_WINDS"},"data":[0,0,0,0,0,0,0,0,0,0,0,0,0,0,0,0,0,0,0,0,0,0,0,0,0,0,0,0,0,0,0,0,0,0,0,0,0,0,0,0,0,0,0,0,0,0,0,0,0,0,0,0,0,0,0,0,0,0,-3.2974,-3.2974,0,-3.2993,-3.2993,-3.2993,-3.2886,-3.2882,-3.2879,-3.2876,-3.2897,-3.29,-3.2903,0,0,0,0,0,0,0,0,0,0,0,0,0,-3.2843,-3.2846,-3.2974,-3.2974,-3.2974,-3.2993,-3.2993,-3.2993,-3.2886,-3.2882,-3.2879,-3.2875,-3.2896,-3.29,-3.2904,0,0,0,0,0,0,0,0,0,0,0,0,0,-3.2885,-3.2847,-3.2974,-3.2923,-3.2918,-3.2993,-3.2993,-3.2993,-3.2887,-3.2882,-3.2878,-3.2873,-3.2894,-3.2899,-3.2904,-3.3028,0,0,-3.292,-3.2922,0,0,0,0,0,0,0,0,-3.2883,-3.289,-3.293,-3.2926,-3.2922,-3.2932,-3.2954,-3.3005,-3.2888,-3.2899,-3.2876,-3.2871,-3.2912,-3.2916,-3.2929,-3.3029,-3.303,-3.292,-3.2923,-3.2926,-3.2927,0,0,0,0,0,0,0,-3.288,-3.2889,-3.2981,-3.2931,-3.2926,-3.2899,-3.29,-3.2963,-3.2931,-3.2898,-3.289,-3.2894,-3.2909,-3.2925,-3.2929,-3.303,-3.292,-3.2925,-3.2928,-3.293,-3.3232,-3.3237,0,0,0,0,0,0,-3.2884,-3.2887,-3.298,-3.2982,-3.289,-3.2905,-3.2906,-3.2933,-3.293,-3.2925,-3.2897,-3.2888,-3.2918,-3.2923,-3.2929,-3.3074,-3.2926,-3.293,-3.2933,-3.3227,-3.3233,-3.3238,0,0,0,0,0,0,-3.2882,-3.2893,-3.298,-3.2932,-3.2941,-3.2912,-3.2944,-3.2936,-3.2952,-3.293,-3.2924,-3.2919,-3.2915,-3.2922,-3.3004,-3.3073,-3.2933,-3.2937,-3.3221,-3.3229,-3.3236,-3.3366,0,0,0,0,0,0,-3.2878,-3.2893,-3.294,-3.2934,-3.2944,-3.3055,-3.2948,-3.294,-3.2961,-3.2949,-3.2949,-3.2945,-3.2912,-3.2997,-3.3009,-3.3078,-3.2941,-3.3215,-3.3225,-3.3233,-3.3355,-3.3377,-3.3395,0,0,0,0,0,-3.2874,-3.2977,-3.2943,-3.2955,-3.3003,-3.3059,-3.3065,-3.3025,-3.2967,-3.3014,-3.3,-3.2945,-3.3063,-3.3006,-3.3019,-3.3091,-3.321,-3.3222,-3.3233,-3.3346,-3.3372,-3.3395,0,0,0,0,0,0,-3.2993,-3.2975,-3.2938,-3.3041,-3.3053,-3.3041,-3.3099,-3.3054,-3.3082,-3.307,-3.3019,-3.302,-3.3111,-3.3108,-3.3045,-3.321,-3.3127,-3.3141,-3.3209,-3.3233,-3.3253,-3.3253,-3.2946,0,0,0,0,0,-3.3031,-3.3078,-3.306,-3.3153,-3.316,-3.3129,-3.3152,-3.312,-3.313,-3.3134,-3.3126,-3.3138,-3.3177,-3.3205,-3.324,-3.3353,-3.3352,-3.3408,-3.3428,-3.3445,-3.3458,-3.3518,-3.3543,-3.3275,-3.3275,-3.3275,0,0,-3.311,-3.3106,-3.314,-3.3177,-3.3182,-3.3232,-3.3134,-3.3192,-3.3229,-3.3143,-3.322,-3.3215,-3.3224,-3.3322,-3.3365,-3.3323,-3.3532,-3.3459,-3.3472,-3.3477,-3.3532,-3.3557,-3.358,-3.3283,-3.3281,-3.328,0,0,-3.3281,-3.3283,-3.336,-3.3367,-3.3375,-3.3353,-3.3372,-3.3367,-3.336,-3.3436,-3.3373,-3.3415,-3.3485,-3.3494,-3.3508,-3.368,-3.3631,-3.3693,-3.3799,-3.3857,-3.3878,-3.3897,-3.3959,-3.3982,-3.3706,-3.3707,-3.3707,0,-3.3379,-3.3453,-3.3406,-3.3468,-3.3486,-3.341,-3.3488,-3.3496,-3.3516,-3.353,-3.3482,-3.3568,-3.3568,-3.3668,-3.371,-3.3723,-3.3743,-3.3694,-3.3879,-3.3897,-3.3913,-3.3972,-3.3996,-3.3714,-3.3713,-3.3713,-3.3712,0,-3.3573,-3.3625,-3.3686,-3.3707,-3.3732,-3.3802,-3.3765,-3.3795,-3.376,-3.3744,-3.3822,-3.382,-3.3853,-3.3874,-3.3841,-3.3969,-3.3942,-3.3888,-3.3803,-3.3947,-3.4002,-3.4024,-3.3725,-3.3722,-3.372,-3.3718,0,0,-3.3822,-3.3814,-3.3838,-3.3846,-3.3848,-3.3888,-3.3953,-3.3985,-3.4013,-3.4028,-3.4082,-3.4142,-3.4091,-3.4106,-3.4073,-3.4124,-3.4261,-3.4063,-3.4062,-3.4101,-3.4403,-3.4445,-3.4472,-3.4228,-3.4232,-3.4235,-3.4402,0,-3.399,-3.4102,-3.4061,-3.4176,-3.4223,-3.415,-3.4207,-3.4215,-3.42,-3.4238,-3.4221,-3.4265,-3.4193,-3.4202,-3.425,-3.4235,-3.4322,-3.4222,-3.4278,-3.4281,-3.428,-3.45,-3.4545,-3.4704,-3.4423,-3.4426,-3.4429,0,-3.4202,-3.4225,-3.4345,-3.4338,-3.4356,-3.4409,-3.4434,-3.4471,-3.4478,-3.4463,-3.448,-3.4435,-3.4499,-3.4413,-3.45,-3.4433,-3.4453,-3.4449,-3.4454,-3.4459,-3.4365,-3.4513,-3.4753,-3.4777,-3.4462,-3.4459,-3.4457,0,-3.4373,-3.4434,-3.4513,-3.4522,-3.4516,-3.4555,-3.4554,-3.4556,-3.4577,-3.4599,-3.4613,-3.4642,-3.4659,-3.4683,-3.4647,-3.4587,-3.4739,-3.465,-3.4729,-3.4731,-3.4766,-3.4765,-3.5015,-3.4777,-3.4777,-3.4776,-3.4776,0,-3.4566,-3.4642,-3.459,-3.4639,-3.4722,-3.4673,-3.4757,-3.4748,-3.475,-3.4796,-3.4733,-3.4778,-3.4727,-3.4766,-3.4738,-3.4814,-3.4822,-3.4812,-3.4805,-3.4819,-3.4821,-3.4833,-3.4822,-3.4782,-3.4781,-3.478,-3.4779,0,-3.4772,-3.474,-3.4822,-3.4808,-3.4807,-3.4869,-3.4857,-3.4902,-3.4882,-3.4941,-3.4952,-3.4921,-3.4963,-3.4929,-3.4971,-3.4952,-3.5054,-3.5029,-3.5052,-3.5046,-3.5127,-3.5121,-3.5395,-3.5429,-3.5169,-3.5171,-3.5173,0,-3.4898,-3.4955,-3.4948,-3.4974,-3.4977,-3.5019,-3.5041,-3.4994,-3.5019,-3.503,-3.5073,-3.5111,-3.5139,-3.5211,-3.5192,-3.5223,-3.52,-3.5294,-3.5205,-3.5218,-3.5203,-3.5201,-3.5206,-3.5313,-3.5316,-3.5319,-3.5321,0,-3.5126,-3.5107,-3.514,-3.5168,-3.5195,-3.5214,-3.5229,-3.5254,-3.5206,-3.5237,-3.528,-3.5301,-3.5343,-3.5382,-3.5407,-3.5405,-3.5356,-3.5348,-3.5369,-3.5385,-3.5397,-3.5393,-3.5103,-3.5343,-3.5341,-3.5339,-3.5338,-3.5337,-3.5297,-3.5344,-3.5346,-3.5385,-3.539,-3.5405,-3.5446,-3.543,-3.5465,-3.5496,-3.5466,-3.5518,-3.5521,-3.555,-3.5554,-3.5594,-3.5555,-3.5584,-3.5592,-3.56,-3.5613,-3.5389,-3.5598,-3.5598,-3.5597,-3.5596,-3.5596,0,-3.5523,-3.552,-3.5556,-3.5577,-3.5608,-3.5556,-3.5569,-3.5599,-3.5645,-3.5652,-3.568,-3.5729,-3.5765,-3.5749,-3.578,-3.5815,-3.5793,-3.5825,-3.5823,-3.5824,-3.5645,-3.5625,-3.5843,-3.5843,-3.5843,-3.5842,-3.5842,-3.5842,-3.5644,-3.5721,-3.5701,-3.578,-3.5776,-3.5826,-3.5838,-3.5851,-3.5856,-3.5914,-3.5943,-3.5932,-3.5929,-3.596,-3.5991,-3.5984,-3.6,-3.604,-3.6027,-3.5861,-3.5836,-3.5813,-3.5794,-3.6044,-3.6044,-3.6202,-3.6203,-3.6205]},{"header":{"parameterUnit":"m.s-1","parameterCategory":1,"la1":30.2991,"la2":30.254,"lo1":-89.0895,"lo2":-89.0444,"dy":0.0017,"dx":0.0017,"nx":28,"ny":28,"refTime":"2024-05-09T21:00:00:Z","depth":0,"parameterNumber":3,"parameterNumberName":"V-component_of_WINDS"},"data":[0,0,0,0,0,0,0,0,0,0,0,0,0,0,0,0,0,0,0,0,0,0,0,0,0,0,0,0,0,0,0,0,0,0,0,0,0,0,0,0,0,0,0,0,0,0,0,0,0,0,0,0,0,0,0,0,0,0,-6.2787,-6.2788,0,-6.2868,-6.2869,-6.287,-6.2785,-6.2782,-6.2778,-6.2775,-6.2852,-6.2857,-6.2862,0,0,0,0,0,0,0,0,0,0,0,0,0,-6.2552,-6.2556,-6.2787,-6.2788,-6.2789,-6.2868,-6.2869,-6.287,-6.2785,-6.2781,-6.2777,-6.2774,-6.285,-6.2856,-6.2862,0,0,0,0,0,0,0,0,0,0,0,0,0,-6.2645,-6.2558,-6.2787,-6.2756,-6.2754,-6.2868,-6.2869,-6.287,-6.2786,-6.2781,-6.2776,-6.2772,-6.2848,-6.2856,-6.2863,-6.3008,0,0,-6.2886,-6.289,0,0,0,0,0,0,0,0,-6.264,-6.2654,-6.276,-6.2759,-6.2757,-6.2811,-6.2814,-6.2916,-6.2787,-6.2774,-6.2775,-6.2769,-6.2842,-6.285,-6.2875,-6.3012,-6.3015,-6.2887,-6.2892,-6.2895,-6.2897,0,0,0,0,0,0,0,-6.2634,-6.265,-6.2819,-6.2761,-6.276,-6.2736,-6.2744,-6.2833,-6.2834,-6.2775,-6.2769,-6.278,-6.284,-6.2868,-6.2877,-6.3016,-6.2887,-6.2894,-6.2898,-6.2901,-6.3273,-6.3279,0,0,0,0,0,0,-6.2631,-6.2645,-6.2816,-6.2821,-6.2685,-6.2745,-6.2753,-6.2799,-6.2833,-6.2834,-6.2784,-6.2776,-6.2858,-6.2868,-6.2879,-6.305,-6.2895,-6.2902,-6.2906,-6.3268,-6.3275,-6.328,0,0,0,0,0,0,-6.2627,-6.2648,-6.2813,-6.2732,-6.2751,-6.2754,-6.2805,-6.2803,-6.2831,-6.284,-6.2839,-6.2813,-6.2854,-6.2868,-6.2977,-6.3052,-6.2905,-6.2912,-6.3262,-6.327,-6.3278,-6.3395,0,0,0,0,0,0,-6.262,-6.2646,-6.2703,-6.2734,-6.2756,-6.2912,-6.281,-6.2808,-6.2845,-6.2835,-6.2867,-6.2868,-6.2851,-6.2966,-6.2984,-6.306,-6.2918,-6.3255,-6.3266,-6.3275,-6.3384,-6.3406,-6.3424,0,0,0,0,0,-6.2612,-6.2732,-6.2707,-6.2728,-6.2827,-6.2916,-6.2929,-6.2909,-6.2852,-6.2908,-6.2913,-6.2867,-6.3041,-6.2978,-6.2998,-6.3076,-6.325,-6.3263,-6.3274,-6.3375,-6.3401,-6.3424,0,0,0,0,0,0,-6.2708,-6.2735,-6.2708,-6.2841,-6.2878,-6.2902,-6.2972,-6.2938,-6.2989,-6.2978,-6.2949,-6.2957,-6.3072,-6.3085,-6.3014,-6.3218,-6.3136,-6.3152,-6.3205,-6.3231,-6.325,-6.3244,-6.2925,0,0,0,0,0,-6.2745,-6.2818,-6.2836,-6.2952,-6.2972,-6.2969,-6.3007,-6.299,-6.3025,-6.3039,-6.3052,-6.3087,-6.3149,-6.319,-6.3248,-6.3385,-6.339,-6.3449,-6.3469,-6.3485,-6.35,-6.3572,-6.3598,-6.332,-6.332,-6.3319,0,0,-6.2822,-6.2846,-6.2893,-6.2972,-6.2998,-6.3072,-6.2983,-6.3064,-6.3118,-6.305,-6.3154,-6.3165,-6.3201,-6.3325,-6.338,-6.3339,-6.3578,-6.3501,-6.3514,-6.3519,-6.3587,-6.3613,-6.3637,-6.3328,-6.3326,-6.3325,0,0,-6.2999,-6.3025,-6.3124,-6.3152,-6.3193,-6.3191,-6.3214,-6.3244,-6.325,-6.3354,-6.3305,-6.3367,-6.3475,-6.3502,-6.353,-6.3717,-6.3676,-6.3737,-6.3841,-6.3912,-6.3934,-6.3953,-6.4019,-6.4043,-6.3751,-6.3751,-6.3752,0,-6.3088,-6.32,-6.3179,-6.3265,-6.33,-6.3245,-6.3343,-6.3371,-6.3428,-6.3452,-6.3406,-6.354,-6.3561,-6.3689,-6.3735,-6.376,-6.3784,-6.3733,-6.3933,-6.3952,-6.3969,-6.4032,-6.4057,-6.3758,-6.3758,-6.3757,-6.3756,0,-6.3307,-6.3385,-6.3459,-6.3518,-6.3562,-6.3653,-6.3644,-6.369,-6.3668,-6.367,-6.3775,-6.3798,-6.3859,-6.3888,-6.3867,-6.4013,-6.3987,-6.3937,-6.3854,-6.4003,-6.4061,-6.4085,-6.3769,-6.3766,-6.3764,-6.3762,0,0,-6.3547,-6.3594,-6.3621,-6.3647,-6.3688,-6.3746,-6.3834,-6.3896,-6.3935,-6.3976,-6.4048,-6.414,-6.4095,-6.4127,-6.4108,-6.417,-6.4315,-6.4112,-6.4113,-6.4149,-6.4477,-6.4514,-6.4542,-6.4288,-6.4293,-6.4296,-6.4473,0,-6.3725,-6.3881,-6.3864,-6.4011,-6.4081,-6.4029,-6.4105,-6.4138,-6.4141,-6.4199,-6.4201,-6.4267,-6.4203,-6.4222,-6.4281,-6.4285,-6.4381,-6.4272,-6.4353,-6.4356,-6.4345,-6.4572,-6.4611,-6.4778,-6.4496,-6.45,-6.4503,0,-6.3953,-6.4004,-6.4159,-6.4189,-6.4218,-6.4287,-6.4342,-6.4399,-6.4433,-6.4431,-6.4467,-6.4437,-6.4522,-6.4438,-6.4555,-6.4481,-6.4513,-6.452,-6.4526,-6.4532,-6.4438,-6.4584,-6.483,-6.4855,-6.4538,-6.4535,-6.4533,0,-6.4112,-6.4219,-6.4326,-6.4349,-6.4387,-6.4436,-6.4454,-6.4483,-6.4521,-6.4568,-6.4592,-6.4647,-6.4677,-6.472,-6.4705,-6.4645,-6.4824,-6.4739,-6.4823,-6.4823,-6.4863,-6.486,-6.5117,-6.4884,-6.4884,-6.4884,-6.4883,0,-6.4312,-6.4409,-6.4398,-6.4463,-6.4569,-6.4548,-6.4652,-6.4662,-6.4689,-6.4754,-6.4711,-6.4772,-6.4749,-6.4808,-6.4796,-6.4893,-6.4907,-6.4906,-6.4902,-6.491,-6.491,-6.493,-6.4918,-6.489,-6.4889,-6.4887,-6.4886,0,-6.4507,-6.4504,-6.4617,-6.4643,-6.4652,-6.4729,-6.475,-6.481,-6.481,-6.4892,-6.491,-6.4909,-6.4976,-6.4965,-6.5039,-6.5031,-6.5153,-6.5135,-6.5142,-6.5138,-6.5222,-6.5214,-6.5501,-6.5536,-6.5281,-6.5284,-6.5286,0,-6.4635,-6.4708,-6.4743,-6.4785,-6.4806,-6.4873,-6.4912,-6.4893,-6.4935,-6.4979,-6.5034,-6.5097,-6.5147,-6.5256,-6.5261,-6.5316,-6.5299,-6.5395,-6.5307,-6.5312,-6.5299,-6.5295,-6.5301,-6.5412,-6.5415,-6.5418,-6.542,0,-6.4862,-6.4857,-6.4916,-6.4974,-6.5022,-6.5067,-6.5107,-6.5142,-6.5126,-6.5175,-6.5244,-6.5283,-6.5359,-6.5422,-6.5474,-6.5489,-6.5452,-6.5448,-6.547,-6.5479,-6.548,-6.548,-6.5189,-6.5441,-6.5439,-6.5437,-6.5436,-6.5435,-6.5027,-6.5089,-6.5124,-6.519,-6.5219,-6.5257,-6.5315,-6.5323,-6.5381,-6.5443,-6.5427,-6.5505,-6.5535,-6.5602,-6.5623,-6.5682,-6.5646,-6.5678,-6.5686,-6.5695,-6.5704,-6.5471,-6.5691,-6.569,-6.569,-6.5689,-6.5689,0,-6.525,-6.527,-6.5332,-6.539,-6.5442,-6.5405,-6.5446,-6.5491,-6.5562,-6.5594,-6.5645,-6.5723,-6.5784,-6.5794,-6.5851,-6.5896,-6.588,-6.5911,-6.5908,-6.5911,-6.5734,-6.5709,-6.5923,-6.5923,-6.5923,-6.5923,-6.5923,-6.5923,-6.5373,-6.5477,-6.5476,-6.5592,-6.561,-6.5688,-6.5715,-6.5749,-6.5775,-6.5866,-6.5917,-6.5923,-6.5946,-6.6004,-6.6058,-6.6059,-6.6081,-6.6119,-6.6114,-6.5947,-6.5924,-6.5902,-6.5878,-6.6125,-6.6125,-6.6286,-6.6287,-6.6289]}]]